Liberty, KS

10:31 AM CST on February 23, 2017 (GMT -0600)
Coffeyville Municipal

Weather History for KCFV - February, 2013

Change the Weather History Date:

Thursday, February 28, 2013

  Actual Average Record
Temperature  
Mean Temperature 34 °F -  
Max Temperature 37 °F 48 °F 77 °F (2006)
Min Temperature 30 °F 29 °F 17 °F (2015)
Degree Days  
Heating Degree Days 32    
Moisture  
Dew Point 27 °F    
Average Humidity 74    
Maximum Humidity 85    
Minimum Humidity 67    
Precipitation  
Precipitation 0.00 in - - ()
Sea Level Pressure  
Sea Level Pressure 30.21 in    
Wind  
Wind Speed 9 mph (NNW)    
Max Wind Speed 16 mph    
Max Gust Speed -    
Visibility 10 miles    
Events      
Averages and records for this station are not official NWS values.
T = Trace of Precipitation, MM = Missing Value Source: NWS Daily Summary

Daily Weather History Graph

Daily Weather History Graph

Search for Another Location

Airport or City:

Trip Planner

Search our weather history database for the weather conditions in past years. The results will help you decide how hot, cold, wet, or windy it might be!

Date:

Astronomy

Feb. 28, 2013 Rise Set
Actual Time 6:54 AM CST 6:15 PM CST
Civil Twilight 6:28 AM CST 6:41 PM CST
Nautical Twilight 5:58 AM CST 7:12 PM CST
Astronomical Twilight 5:27 AM CST 7:42 PM CST
Moon 9:37 PM CST (2/28) 8:09 AM CST (2/28)
Length of Visible Light 12h 13m
Length of Day
11h 21m
Waning Gibbous, 90% of the Moon is Illuminated
Feb 28
Waning Gibbous
Mar 4
Last Quarter
Mar 11
New
Mar 19
First Quarter
Mar 27
Full

Hourly Weather History & Observations

Time (CST) Temp. Windchill Dew Point Humidity Pressure Visibility Wind Dir Wind Speed Gust Speed Precip Events Conditions
12:52 AM 34.0 °F 26.6 °F 27.0 °F 75% 30.14 in 10.0 mi NW 9.2 mph - N/A   Clear
1:52 AM 34.0 °F 25.5 °F 26.1 °F 73% 30.15 in 10.0 mi NW 11.5 mph - N/A   Clear
2:52 AM 32.0 °F 24.2 °F 26.1 °F 79% 30.15 in 10.0 mi NW 9.2 mph - N/A   Clear
3:52 AM 32.0 °F 24.8 °F 26.1 °F 79% 30.16 in 10.0 mi WNW 8.1 mph - N/A   Clear
4:52 AM 30.0 °F 21.7 °F 26.1 °F 85% 30.17 in 10.0 mi West 9.2 mph - N/A   Clear
5:52 AM 30.9 °F 22.8 °F 26.1 °F 82% 30.18 in 10.0 mi WNW 9.2 mph - N/A   Clear
6:52 AM 30.9 °F 22.2 °F 26.1 °F 82% 30.19 in 10.0 mi NW 10.4 mph - N/A   Mostly Cloudy
7:52 AM 32.0 °F 24.8 °F 26.1 °F 79% 30.20 in 10.0 mi NW 8.1 mph - N/A   Overcast
9:52 AM 36.0 °F 26.7 °F 27.0 °F 70% 30.21 in 10.0 mi NNW 15.0 mph - N/A   Overcast
10:52 AM 36.0 °F 26.3 °F 28.0 °F 73% 30.23 in 10.0 mi NNW 16.1 mph - N/A   Overcast
11:52 AM 37.0 °F 29.8 °F 28.0 °F 70% 30.24 in 10.0 mi NNW 10.4 mph - N/A   Overcast
12:52 PM 37.9 °F 30.0 °F 28.0 °F 68% 30.22 in 10.0 mi NNW 12.7 mph - N/A   Overcast
1:52 PM 37.0 °F 29.8 °F 27.0 °F 67% 30.22 in 10.0 mi NNW 10.4 mph - N/A   Overcast
3:52 PM 37.0 °F 29.3 °F 28.0 °F 70% 30.23 in 10.0 mi NW 11.5 mph - N/A   Overcast
4:52 PM 37.0 °F 30.4 °F 27.0 °F 67% 30.23 in 10.0 mi North 9.2 mph - N/A   Overcast
5:52 PM 36.0 °F 29.6 °F 27.0 °F 70% 30.23 in 10.0 mi North 8.1 mph - N/A   Overcast
6:12 PM 35.6 °F 29.9 °F 26.6 °F 70% 30.21 in 10.0 mi North 6.9 mph - N/A   Overcast
6:38 PM 35.6 °F 29.9 °F 26.6 °F 70% 30.22 in 10.0 mi North 6.9 mph - N/A   Overcast
6:52 PM 35.1 °F 29.3 °F 27.0 °F 72% 30.25 in 10.0 mi North 6.9 mph - N/A   Overcast
7:52 PM 34.0 °F 31.0 °F 27.0 °F 75% 30.25 in 10.0 mi NNW 3.5 mph - N/A   Overcast
8:03 PM 33.8 °F 30.8 °F 26.6 °F 75% 30.23 in 10.0 mi NNW 3.5 mph - N/A   Overcast
8:52 PM 34.0 °F 28.8 °F 27.0 °F 75% 30.25 in 10.0 mi NNW 5.8 mph - N/A   Overcast
9:52 PM 34.0 °F 28.0 °F 26.1 °F 73% 30.26 in 10.0 mi North 6.9 mph - N/A   Overcast
10:52 PM 33.1 °F 28.7 °F 27.0 °F 78% 30.25 in 10.0 mi NW 4.6 mph - N/A   Overcast
11:52 PM 33.1 °F 28.7 °F 27.0 °F 78% 30.24 in 10.0 mi WNW 4.6 mph - N/A   Overcast